Regional Weather Roundup
Issued by NWS Little Rock, AR

Home | Current Version | Previous Version | Text Only | Print | Product List | Glossary On
Versions: 1 2 3 4 5 6 7 8 9 10 11 12 13 14 15 16 17 18 19 20 21 22 23 24 25 26 27 28 29 30 31 32 33 34 35 36 37 38 39 40 41 42 43 44 45
000
ASUS44 KLZK 062205
RWRLZK

WEATHER ROUNDUP FOR ARKANSAS
NATIONAL WEATHER SERVICE LITTLE ROCK AR
400 PM CST FRI MAR 06 2015

NOTE: "FAIR" INDICATES FEW OR NO CLOUDS BELOW 12,000 FEET WITH NO
SIGNIFICANT WEATHER AND/OR OBSTRUCTIONS TO VISIBILITY.

ARZ001-003-010-029-062300-
NORTHWEST ARKANSAS

CITY           SKY/WX    TMP DP  RH WIND       PRES   REMARKS
FAYETTEVILLE   SUNNY     49  27  42 SW10      30.39F
FORT SMITH     SUNNY     52  24  33 VRB3      30.43F
HARRISON       SUNNY     49  25  39 W6        30.38F
BENTONVILLE    SUNNY     50  27  40 SW14      30.39F
ROGERS         SUNNY     50  27  40 SW12      30.38F
SILOAM SPGS    SUNNY     52  25  35 SW15      30.40F
HIGHFILL       SUNNY     50  25  37 SW13      30.37F
SPRINGDALE     SUNNY     48  25  40 S12G18    30.40F
$$

ARZ004-005-016-062300-
NORTH CENTRAL ARKANSAS

CITY           SKY/WX    TMP DP  RH WIND       PRES   REMARKS
BATESVILLE     SUNNY     43  19  39 S9        30.45F
FLIPPIN        SUNNY     52  25  35 W10       30.38F
MTN HOME       SUNNY     49  23  36 SW9       30.38F
$$

ARZ040-041-062300-
WEST CENTRAL ARKANSAS

CITY           SKY/WX    TMP DP  RH WIND       PRES   REMARKS
MENA           SUNNY     52  21  30 SW5       30.43F
MOUNT IDA      SUNNY     51  20  29 SE3       30.42F
$$

ARZ009-017-025-026-028-062300-
NORTHEAST ARKANSAS

CITY           SKY/WX    TMP DP  RH WIND       PRES   REMARKS
CORNING        FAIR      32  18  55 SW13      30.48F WCI  22
JONESBORO      SUNNY     29  19  66 S9        30.50F WCI  20
NEWPORT        SUNNY     33  22  64 S12       30.51F WCI  24
WALNUT RIDGE   SUNNY     30  18  59 S14       30.49S WCI  20
BLYTHEVILLE    SUNNY     29  18  63 SW6       30.51F WCI  23
$$

ARZ022-023-033-042-044-062300-
CENTRAL ARKANSAS

CITY           SKY/WX    TMP DP  RH WIND       PRES   REMARKS
LITTLE ROCK    SUNNY     38  20  48 SE8       30.51F
N LITTLE ROCK  SUNNY     39  23  54 SE9       30.51F
JACKSONVILLE   SUNNY     40  19  42 S8        30.49F
SEARCY         SUNNY     41  20  43 S7        30.51F
HOT SPRINGS    SUNNY     49  20  31 VRB3      30.47F
RUSSELLVILLE   SUNNY     50  23  34 W6        30.44F
CLINTON        FAIR      46  25  42 S8        30.46F
$$

ARZ036-062300-
EAST ARKANSAS

CITY           SKY/WX    TMP DP  RH WIND       PRES   REMARKS
WEST MEMPHIS   SUNNY     33  16  49 CALM      30.51F
$$

ARZ050-053-066-070-073-062300-
SOUTHWEST ARKANSAS

CITY           SKY/WX    TMP DP  RH WIND       PRES   REMARKS
ARKADELPHIA    FAIR      46  26  46 CALM      30.51F
CAMDEN         SUNNY     48  14  25 CALM      30.52S
TEXARKANA      SUNNY     48  23  37 NE6       30.49F
EL DORADO      SUNNY     47  19  33 SE6       30.50F
DE QUEEN       SUNNY     50  20  30 VRB3      30.46F
$$

ARZ056-057-069-062300-
SOUTHEAST ARKANSAS

CITY           SKY/WX    TMP DP  RH WIND       PRES   REMARKS
PINE BLUFF     SUNNY     37  22  54 SE9       30.52F
STUTTGART      SUNNY     36  18  48 SE6       30.54F
MONTICELLO     SUNNY     44  22  41 E6        30.51F

$$




USA.gov is the U.S. government's official web portal to all federal, state and local government web resources and services.